JAT556 SCIE-SCFA

Flight info

Callsign JAT556
Flight time 2h 9m
Altitude 38000
Route SOSTA5M SOSTA UT105 TOY UV200 DOVRI UQ802 LONEK LONEK2A
Aircraft A320/M-SDE3FGHIRWY/LB1

Departure

Time 2026-04-23 14:27
Airport Carriel Sur International Airport (SCIE)

Arrival

Time 2026-04-23 16:37
Airport Andrés Sabella Gálvez International Airport (SCFA)
Time Latitude Longitude Altitude Speed Heading
2026-04-23 14:01 -36.77631 -73.05902 30 ft 0 kts 200°
2026-04-23 14:02 -36.77630 -73.05902 30 ft 0 kts 200°
2026-04-23 14:15 -36.77621 -73.05898 30 ft 4 kts 200°
2026-04-23 14:16 -36.77598 -73.05887 30 ft 2 kts 200°
2026-04-23 14:16 -36.77577 -73.05873 30 ft 4 kts 237°
2026-04-23 14:16 -36.77573 -73.05845 30 ft 4 kts 291°
2026-04-23 14:16 -36.77578 -73.05832 30 ft 0 kts 296°
2026-04-23 14:19 -36.77577 -73.05833 30 ft 1 kts 296°
2026-04-23 14:19 -36.77573 -73.05844 30 ft 2 kts 297°
2026-04-23 14:19 -36.77562 -73.05871 30 ft 4 kts 294°
2026-04-23 14:19 -36.77551 -73.05917 30 ft 6 kts 283°
2026-04-23 14:20 -36.77545 -73.05976 30 ft 6 kts 272°
2026-04-23 14:20 -36.77540 -73.06037 30 ft 8 kts 281°
2026-04-23 14:20 -36.77522 -73.06097 30 ft 7 kts 296°
2026-04-23 14:20 -36.77495 -73.06159 30 ft 9 kts 303°
2026-04-23 14:21 -36.77444 -73.06179 30 ft 8 kts 14°
2026-04-23 14:21 -36.77384 -73.06146 30 ft 10 kts 25°
2026-04-23 14:21 -36.77307 -73.06102 30 ft 14 kts 25°
2026-04-23 14:21 -36.77214 -73.06047 30 ft 16 kts 25°
2026-04-23 14:22 -36.77109 -73.05986 29 ft 18 kts 26°
2026-04-23 14:22 -36.77001 -73.05921 29 ft 17 kts 25°
2026-04-23 14:22 -36.76892 -73.05857 30 ft 18 kts 25°
2026-04-23 14:22 -36.76784 -73.05795 30 ft 17 kts 25°
2026-04-23 14:23 -36.76673 -73.05730 30 ft 18 kts 24°
2026-04-23 14:23 -36.76565 -73.05668 30 ft 16 kts 24°
2026-04-23 14:23 -36.76473 -73.05616 30 ft 13 kts 24°
2026-04-23 14:23 -36.76410 -73.05588 30 ft 8 kts
2026-04-23 14:24 -36.76359 -73.05612 29 ft 7 kts 317°
2026-04-23 14:24 -36.76341 -73.05648 29 ft 1 kts 295°
2026-04-23 14:24 -36.76341 -73.05649 29 ft 0 kts 295°
2026-04-23 14:25 -36.76339 -73.05653 29 ft 2 kts 295°
2026-04-23 14:25 -36.76329 -73.05679 29 ft 5 kts 295°
2026-04-23 14:25 -36.76313 -73.05730 28 ft 8 kts 281°
2026-04-23 14:26 -36.76335 -73.05782 28 ft 7 kts 217°
2026-04-23 14:26 -36.76361 -73.05798 29 ft 0 kts 205°
2026-04-23 14:26 -36.76370 -73.05804 29 ft 8 kts 205°
2026-04-23 14:27 -36.76607 -73.05941 30 ft 72 kts 205°
2026-04-23 14:27 -36.77249 -73.06312 28 ft 128 kts 205°
2026-04-23 14:27 -36.78174 -73.06847 214 ft 155 kts 205°
2026-04-23 14:27 -36.79148 -73.07389 900 ft 152 kts 203°
2026-04-23 14:28 -36.80080 -73.08047 1378 ft 163 kts 222°
2026-04-23 14:28 -36.80704 -73.09330 1586 ft 189 kts 253°
2026-04-23 14:28 -36.80655 -73.11057 1881 ft 213 kts 287°
2026-04-23 14:28 -36.79765 -73.12667 2249 ft 243 kts 319°
2026-04-23 14:29 -36.78249 -73.13790 2812 ft 263 kts 332°
2026-04-23 14:29 -36.76591 -73.14812 3705 ft 268 kts 333°
2026-04-23 14:29 -36.74903 -73.15843 4578 ft 272 kts 333°
2026-04-23 14:29 -36.73195 -73.16877 5441 ft 274 kts 334°
2026-04-23 14:30 -36.71372 -73.17616 6281 ft 278 kts 349°
2026-04-23 14:30 -36.69425 -73.17675 7075 ft 283 kts
2026-04-23 14:30 -36.67515 -73.17029 7843 ft 288 kts 20°
2026-04-23 14:30 -36.65632 -73.16133 8600 ft 292 kts 19°
2026-04-23 14:31 -36.63723 -73.15239 9374 ft 295 kts 19°
2026-04-23 14:31 -36.61784 -73.14338 10127 ft 299 kts 19°
2026-04-23 14:31 -36.59801 -73.13425 10631 ft 310 kts 19°
2026-04-23 14:31 -36.57726 -73.12477 11028 ft 325 kts 18°
2026-04-23 14:32 -36.55561 -73.11481 11435 ft 338 kts 19°
2026-04-23 14:32 -36.53324 -73.10438 11864 ft 349 kts 19°
2026-04-23 14:32 -36.51019 -73.09362 12359 ft 357 kts 19°
2026-04-23 14:32 -36.48671 -73.08270 12913 ft 364 kts 19°
2026-04-23 14:33 -36.46287 -73.07160 13505 ft 368 kts 19°
2026-04-23 14:33 -36.43880 -73.06040 14117 ft 371 kts 19°
2026-04-23 14:33 -36.41450 -73.04913 14665 ft 374 kts 18°
2026-04-23 14:33 -36.38999 -73.03778 15216 ft 377 kts 18°
2026-04-23 14:34 -36.36530 -73.02637 15775 ft 380 kts 18°
2026-04-23 14:34 -36.34047 -73.01490 16322 ft 382 kts 18°
2026-04-23 14:34 -36.32370 -73.00691 16680 ft 384 kts 21°
2026-04-23 14:34 -36.29999 -72.99109 17218 ft 389 kts 31°
2026-04-23 14:35 -36.27729 -72.97266 17764 ft 392 kts 31°
2026-04-23 14:35 -36.25439 -72.95410 18312 ft 394 kts 31°
2026-04-23 14:35 -36.23134 -72.93548 18822 ft 397 kts 31°
2026-04-23 14:35 -36.20811 -72.91672 19301 ft 400 kts 31°
2026-04-23 14:36 -36.18468 -72.89781 19786 ft 403 kts 31°
2026-04-23 14:36 -36.16109 -72.87882 20262 ft 406 kts 31°
2026-04-23 14:36 -36.13737 -72.85973 20740 ft 408 kts 31°
2026-04-23 14:36 -36.11349 -72.84055 21207 ft 411 kts 31°
2026-04-23 14:37 -36.08942 -72.82125 21654 ft 414 kts 31°
2026-04-23 14:37 -36.06521 -72.80184 22089 ft 416 kts 31°
2026-04-23 14:37 -36.04082 -72.78229 22521 ft 419 kts 31°
2026-04-23 14:37 -36.01635 -72.76265 22949 ft 421 kts 31°
2026-04-23 14:38 -35.99166 -72.74287 23394 ft 424 kts 31°
2026-04-23 14:38 -35.96683 -72.72300 23836 ft 427 kts 31°
2026-04-23 14:38 -35.94186 -72.70298 24186 ft 429 kts 31°
2026-04-23 14:38 -35.91675 -72.68284 24556 ft 431 kts 31°
2026-04-23 14:39 -35.89157 -72.66271 24920 ft 433 kts 31°
2026-04-23 14:39 -35.86620 -72.64246 25293 ft 435 kts 31°
2026-04-23 14:39 -35.84006 -72.62259 25654 ft 435 kts 25°
2026-04-23 14:39 -35.81272 -72.60786 25993 ft 434 kts 16°
2026-04-23 14:40 -35.78319 -72.59848 26330 ft 433 kts
2026-04-23 14:40 -35.75338 -72.59213 26660 ft 435 kts
2026-04-23 14:40 -35.72353 -72.58569 27004 ft 437 kts
2026-04-23 14:40 -35.69354 -72.57914 27337 ft 439 kts
2026-04-23 14:41 -35.66339 -72.57253 27690 ft 441 kts
2026-04-23 14:41 -35.63314 -72.56591 28042 ft 443 kts
2026-04-23 14:41 -35.60273 -72.55929 28382 ft 445 kts
2026-04-23 14:41 -35.57218 -72.55266 28721 ft 447 kts
2026-04-23 14:42 -35.54148 -72.54601 29092 ft 448 kts
2026-04-23 14:42 -35.51088 -72.53938 29573 ft 446 kts
2026-04-23 14:42 -35.48034 -72.53272 30059 ft 445 kts
2026-04-23 14:42 -35.44987 -72.52610 30491 ft 444 kts
2026-04-23 14:43 -35.41948 -72.51954 30887 ft 443 kts
2026-04-23 14:43 -35.38918 -72.51301 31297 ft 441 kts
2026-04-23 14:43 -35.35903 -72.50651 31702 ft 440 kts
2026-04-23 14:43 -35.32885 -72.50001 32099 ft 439 kts
2026-04-23 14:44 -35.29884 -72.49357 32527 ft 438 kts
2026-04-23 14:44 -35.26886 -72.48715 32939 ft 437 kts
2026-04-23 14:44 -35.23895 -72.48075 33353 ft 435 kts
2026-04-23 14:44 -35.20918 -72.47435 33766 ft 434 kts
2026-04-23 14:45 -35.17948 -72.46796 34176 ft 433 kts
2026-04-23 14:45 -35.14988 -72.46157 34513 ft 432 kts
2026-04-23 14:45 -35.12029 -72.45519 34829 ft 431 kts
2026-04-23 14:45 -35.09083 -72.44886 35121 ft 430 kts
2026-04-23 14:46 -35.06133 -72.44254 35412 ft 430 kts
2026-04-23 14:46 -35.03188 -72.43624 35693 ft 429 kts
2026-04-23 14:46 -35.00250 -72.42995 35972 ft 428 kts
2026-04-23 14:46 -34.97316 -72.42367 36253 ft 428 kts
2026-04-23 14:47 -34.94388 -72.41743 36533 ft 427 kts
2026-04-23 14:47 -34.91456 -72.41119 36782 ft 427 kts
2026-04-23 14:47 -34.88533 -72.40496 37033 ft 426 kts
2026-04-23 14:47 -34.85577 -72.39867 37279 ft 426 kts
2026-04-23 14:48 -34.82658 -72.39247 37518 ft 425 kts
2026-04-23 14:48 -34.79740 -72.38626 37752 ft 425 kts
2026-04-23 14:48 -34.76827 -72.38007 37985 ft 425 kts
2026-04-23 14:48 -34.73916 -72.37387 38182 ft 425 kts
2026-04-23 14:49 -34.68051 -72.36146 38223 ft 430 kts
2026-04-23 14:49 -34.62138 -72.34893 38230 ft 432 kts
2026-04-23 14:50 -34.56223 -72.33637 38222 ft 432 kts
2026-04-23 14:50 -34.50307 -72.32389 38232 ft 431 kts
2026-04-23 14:51 -34.44398 -72.31148 38221 ft 431 kts
2026-04-23 14:51 -34.39832 -72.30185 38225 ft 431 kts
2026-04-23 14:52 -34.33920 -72.28938 38221 ft 431 kts
2026-04-23 14:52 -34.28004 -72.27696 38224 ft 431 kts
2026-04-23 14:53 -34.22091 -72.26452 38220 ft 431 kts
2026-04-23 14:53 -34.16180 -72.25214 38221 ft 431 kts
2026-04-23 14:54 -34.10273 -72.23980 38224 ft 431 kts
2026-04-23 14:54 -34.04374 -72.22756 38220 ft 430 kts
2026-04-23 14:55 -33.98433 -72.21516 38218 ft 430 kts
2026-04-23 14:55 -33.92581 -72.20286 38223 ft 430 kts
2026-04-23 14:56 -33.86654 -72.19048 38217 ft 429 kts
2026-04-23 14:56 -33.80774 -72.17831 38216 ft 429 kts
2026-04-23 14:57 -33.74894 -72.16619 38213 ft 428 kts
2026-04-23 14:57 -33.69025 -72.15402 38214 ft 428 kts
2026-04-23 14:58 -33.63158 -72.14186 38213 ft 428 kts
2026-04-23 14:58 -33.57297 -72.12967 38212 ft 427 kts
2026-04-23 14:59 -33.51446 -72.11755 38211 ft 427 kts
2026-04-23 14:59 -33.45600 -72.10550 38210 ft 426 kts
2026-04-23 15:00 -33.39758 -72.09348 38213 ft 426 kts
2026-04-23 15:00 -33.33924 -72.08153 38209 ft 425 kts
2026-04-23 15:01 -33.28097 -72.06956 38210 ft 425 kts
2026-04-23 15:01 -33.22270 -72.05759 38203 ft 424 kts
2026-04-23 15:02 -33.16453 -72.04564 38201 ft 424 kts
2026-04-23 15:02 -33.10639 -72.03373 38201 ft 423 kts
2026-04-23 15:03 -33.04836 -72.02194 38198 ft 423 kts
2026-04-23 15:03 -32.99031 -72.01006 38196 ft 423 kts
2026-04-23 15:04 -32.93196 -71.99816 38193 ft 422 kts
2026-04-23 15:04 -32.87402 -71.98642 38194 ft 422 kts
2026-04-23 15:05 -32.81614 -71.97468 38199 ft 422 kts
2026-04-23 15:05 -32.75828 -71.96309 38194 ft 421 kts
2026-04-23 15:06 -32.70050 -71.95140 38187 ft 421 kts
2026-04-23 15:06 -32.64273 -71.93962 38190 ft 421 kts
2026-04-23 15:07 -32.58505 -71.92799 38186 ft 420 kts
2026-04-23 15:07 -32.52738 -71.91640 38190 ft 420 kts
2026-04-23 15:08 -32.47948 -71.90674 38188 ft 420 kts
2026-04-23 15:09 -32.39276 -71.88926 38189 ft 419 kts
2026-04-23 15:09 -32.33527 -71.87769 38188 ft 419 kts
2026-04-23 15:10 -32.27782 -71.86620 38189 ft 418 kts
2026-04-23 15:10 -32.22043 -71.85478 38188 ft 418 kts
2026-04-23 15:11 -32.16308 -71.84337 38187 ft 418 kts
2026-04-23 15:11 -32.10580 -71.83186 38188 ft 417 kts
2026-04-23 15:12 -32.04862 -71.82042 38187 ft 417 kts
2026-04-23 15:12 -31.99147 -71.80905 38178 ft 416 kts
2026-04-23 15:13 -31.93438 -71.79766 38176 ft 416 kts
2026-04-23 15:13 -31.87729 -71.78632 38180 ft 416 kts
2026-04-23 15:14 -31.82022 -71.77501 38174 ft 416 kts
2026-04-23 15:14 -31.76317 -71.76362 38175 ft 416 kts
2026-04-23 15:15 -31.70618 -71.75235 38174 ft 415 kts
2026-04-23 15:15 -31.64917 -71.74118 38170 ft 415 kts 360°
2026-04-23 15:16 -31.59216 -71.72998 38172 ft 415 kts 360°
2026-04-23 15:16 -31.53480 -71.71862 38172 ft 415 kts 360°
2026-04-23 15:17 -31.47776 -71.70732 38167 ft 415 kts 360°
2026-04-23 15:17 -31.42076 -71.69603 38170 ft 415 kts 360°
2026-04-23 15:18 -31.36375 -71.68485 38170 ft 415 kts 359°
2026-04-23 15:18 -31.30673 -71.67368 38166 ft 415 kts 359°
2026-04-23 15:19 -31.24969 -71.66254 38162 ft 416 kts 359°
2026-04-23 15:19 -31.19266 -71.65137 38160 ft 416 kts 359°
2026-04-23 15:20 -31.13557 -71.64016 38162 ft 416 kts 359°
2026-04-23 15:20 -31.07843 -71.62897 38158 ft 416 kts 359°
2026-04-23 15:21 -31.02135 -71.61786 38152 ft 416 kts 359°
2026-04-23 15:21 -30.96424 -71.60675 38155 ft 416 kts 359°
2026-04-23 15:22 -30.90709 -71.59554 38150 ft 416 kts 359°
2026-04-23 15:22 -30.84989 -71.58439 38151 ft 417 kts 359°
2026-04-23 15:23 -30.79267 -71.57331 38152 ft 417 kts 359°
2026-04-23 15:23 -30.73543 -71.56223 38149 ft 417 kts 359°
2026-04-23 15:24 -30.67810 -71.55102 38151 ft 418 kts 359°
2026-04-23 15:24 -30.62081 -71.53987 38151 ft 417 kts 359°
2026-04-23 15:25 -30.56312 -71.52879 38155 ft 418 kts 359°
2026-04-23 15:25 -30.50575 -71.51780 38146 ft 418 kts 359°
2026-04-23 15:26 -30.44837 -71.50670 38147 ft 418 kts 359°
2026-04-23 15:26 -30.39099 -71.49562 38150 ft 418 kts 358°
2026-04-23 15:27 -30.33352 -71.48457 38142 ft 418 kts 358°
2026-04-23 15:27 -30.27611 -71.47357 38142 ft 419 kts 359°
2026-04-23 15:28 -30.21860 -71.46089 38141 ft 422 kts
2026-04-23 15:28 -30.16115 -71.44655 38136 ft 423 kts
2026-04-23 15:29 -30.10367 -71.43232 38132 ft 422 kts
2026-04-23 15:29 -30.04624 -71.41860 38131 ft 421 kts
2026-04-23 15:30 -29.98879 -71.40505 38126 ft 421 kts 360°
2026-04-23 15:30 -29.93137 -71.39151 38125 ft 421 kts 360°
2026-04-23 15:31 -29.87395 -71.37792 38115 ft 421 kts 360°
2026-04-23 15:31 -29.81660 -71.36429 38133 ft 421 kts 360°
2026-04-23 15:32 -29.75889 -71.35057 38129 ft 421 kts 359°
2026-04-23 15:32 -29.70163 -71.33701 38133 ft 420 kts 359°
2026-04-23 15:33 -29.64437 -71.32350 38138 ft 420 kts 359°
2026-04-23 15:33 -29.58714 -71.30997 38145 ft 419 kts 359°
2026-04-23 15:34 -29.53001 -71.29646 38149 ft 419 kts 359°
2026-04-23 15:34 -29.47287 -71.28296 38146 ft 419 kts 359°
2026-04-23 15:35 -29.41582 -71.26951 38146 ft 418 kts 359°
2026-04-23 15:35 -29.35884 -71.25607 38145 ft 418 kts 358°
2026-04-23 15:36 -29.30197 -71.24267 38135 ft 417 kts 358°
2026-04-23 15:36 -29.24523 -71.22941 38129 ft 416 kts 358°
2026-04-23 15:37 -29.18858 -71.21617 38129 ft 416 kts 358°
2026-04-23 15:37 -29.14111 -71.20509 38131 ft 416 kts 358°
2026-04-23 15:38 -29.07535 -71.18972 38120 ft 415 kts 358°
2026-04-23 15:38 -29.01882 -71.17657 38121 ft 414 kts 358°
2026-04-23 15:39 -28.96199 -71.16325 38126 ft 414 kts 358°
2026-04-23 15:39 -28.90551 -71.15004 38126 ft 414 kts 357°
2026-04-23 15:40 -28.84908 -71.13698 38119 ft 413 kts 356°
2026-04-23 15:40 -28.80230 -71.12614 38120 ft 413 kts 357°
2026-04-23 15:41 -28.74600 -71.11308 38123 ft 413 kts 357°
2026-04-23 15:41 -28.68967 -71.10000 38119 ft 413 kts 357°
2026-04-23 15:42 -28.63335 -71.08692 38126 ft 413 kts 357°
2026-04-23 15:42 -28.57713 -71.07400 38125 ft 412 kts 357°
2026-04-23 15:43 -28.52091 -71.06109 38133 ft 412 kts 357°
2026-04-23 15:43 -28.46467 -71.04805 38131 ft 413 kts 357°
2026-04-23 15:44 -28.40838 -71.03498 38134 ft 413 kts 357°
2026-04-23 15:44 -28.35173 -71.02196 38135 ft 412 kts 357°
2026-04-23 15:45 -28.29555 -71.00906 38134 ft 412 kts 356°
2026-04-23 15:45 -28.23936 -70.99621 38147 ft 412 kts 357°
2026-04-23 15:46 -28.18323 -70.98328 38141 ft 412 kts 357°
2026-04-23 15:46 -28.12704 -70.97028 38135 ft 412 kts 357°
2026-04-23 15:47 -28.07092 -70.95742 38139 ft 411 kts 357°
2026-04-23 15:47 -28.01488 -70.94461 38134 ft 411 kts 357°
2026-04-23 15:48 -27.95871 -70.93180 38139 ft 411 kts 357°
2026-04-23 15:48 -27.90263 -70.91902 38142 ft 411 kts 357°
2026-04-23 15:49 -27.84659 -70.90619 38142 ft 411 kts 357°
2026-04-23 15:49 -27.79055 -70.89342 38141 ft 410 kts 357°
2026-04-23 15:50 -27.73456 -70.88066 38139 ft 410 kts 357°
2026-04-23 15:50 -27.67862 -70.86795 38136 ft 410 kts 357°
2026-04-23 15:51 -27.62261 -70.85523 38135 ft 410 kts 357°
2026-04-23 15:51 -27.56626 -70.84239 38133 ft 410 kts 357°
2026-04-23 15:52 -27.51034 -70.82968 38131 ft 410 kts 357°
2026-04-23 15:52 -27.45445 -70.81704 38132 ft 410 kts 357°
2026-04-23 15:53 -27.39852 -70.80437 38130 ft 410 kts 357°
2026-04-23 15:53 -27.34259 -70.79166 38136 ft 410 kts 357°
2026-04-23 15:54 -27.28660 -70.77908 38137 ft 409 kts 356°
2026-04-23 15:54 -27.25882 -70.77553 38130 ft 398 kts 351°
2026-04-23 15:54 -27.23121 -70.77312 38131 ft 398 kts 351°
2026-04-23 15:55 -27.17585 -70.76828 38132 ft 399 kts 351°
2026-04-23 15:55 -27.12042 -70.76332 38138 ft 400 kts 351°
2026-04-23 15:56 -27.06491 -70.75829 38129 ft 400 kts 351°
2026-04-23 15:56 -27.00937 -70.75335 38124 ft 401 kts 351°
2026-04-23 15:57 -26.95375 -70.74846 38112 ft 401 kts 351°
2026-04-23 15:57 -26.89810 -70.74361 38114 ft 402 kts 351°
2026-04-23 15:58 -26.84236 -70.73863 38113 ft 403 kts 352°
2026-04-23 15:58 -26.78647 -70.73355 38105 ft 403 kts 351°
2026-04-23 15:59 -26.73017 -70.72860 38103 ft 403 kts 351°
2026-04-23 15:59 -26.67422 -70.72366 38104 ft 404 kts 352°
2026-04-23 16:00 -26.61816 -70.71868 38106 ft 404 kts 352°
2026-04-23 16:00 -26.56206 -70.71370 38105 ft 405 kts 352°
2026-04-23 16:01 -26.50589 -70.70878 38101 ft 405 kts 352°
2026-04-23 16:01 -26.44960 -70.70382 38108 ft 406 kts 352°
2026-04-23 16:02 -26.39328 -70.69882 38120 ft 406 kts 352°
2026-04-23 16:02 -26.33685 -70.69381 38124 ft 407 kts 352°
2026-04-23 16:03 -26.28045 -70.68890 38122 ft 407 kts 352°
2026-04-23 16:03 -26.22400 -70.68402 38123 ft 407 kts 352°
2026-04-23 16:04 -26.16747 -70.67905 38118 ft 408 kts 352°
2026-04-23 16:04 -26.11096 -70.67398 38119 ft 407 kts 352°
2026-04-23 16:05 -26.06371 -70.66985 38119 ft 407 kts 352°
2026-04-23 16:05 -25.99807 -70.66415 38120 ft 407 kts 352°
2026-04-23 16:06 -25.94161 -70.65922 38118 ft 407 kts 352°
2026-04-23 16:06 -25.88478 -70.65430 38118 ft 407 kts 352°
2026-04-23 16:07 -25.82828 -70.64947 38119 ft 408 kts 352°
2026-04-23 16:07 -25.77171 -70.64456 38122 ft 408 kts 353°
2026-04-23 16:08 -25.71507 -70.63954 38123 ft 408 kts 353°
2026-04-23 16:08 -25.65849 -70.63457 38126 ft 408 kts 353°
2026-04-23 16:09 -25.60191 -70.62961 38126 ft 408 kts 353°
2026-04-23 16:09 -25.54537 -70.62468 38122 ft 407 kts 353°
2026-04-23 16:10 -25.48881 -70.61981 38122 ft 408 kts 353°
2026-04-23 16:10 -25.43224 -70.61492 38116 ft 408 kts 353°
2026-04-23 16:11 -25.37563 -70.61006 38117 ft 408 kts 353°
2026-04-23 16:11 -25.31895 -70.60513 37856 ft 409 kts 353°
2026-04-23 16:11 -25.29057 -70.60269 37488 ft 410 kts 353°
2026-04-23 16:12 -25.26202 -70.60026 37097 ft 412 kts 353°
2026-04-23 16:12 -25.23292 -70.59780 36658 ft 415 kts 353°
2026-04-23 16:12 -25.20436 -70.59537 36244 ft 419 kts 353°
2026-04-23 16:12 -25.17482 -70.59286 35828 ft 422 kts 353°
2026-04-23 16:13 -25.15536 -70.59121 35559 ft 425 kts 353°
2026-04-23 16:13 -25.09592 -70.58613 34763 ft 432 kts 353°
2026-04-23 16:13 -25.06584 -70.58351 34378 ft 435 kts 353°
2026-04-23 16:14 -25.03551 -70.58086 33976 ft 439 kts 353°
2026-04-23 16:14 -25.00496 -70.57821 33519 ft 440 kts 354°
2026-04-23 16:14 -24.97452 -70.57554 33083 ft 438 kts 354°
2026-04-23 16:14 -24.94415 -70.57286 32664 ft 437 kts 354°
2026-04-23 16:15 -24.91393 -70.57023 32246 ft 436 kts 354°
2026-04-23 16:15 -24.88371 -70.56763 31830 ft 435 kts 354°
2026-04-23 16:15 -24.85361 -70.56507 31422 ft 433 kts 354°
2026-04-23 16:15 -24.82362 -70.56257 31019 ft 432 kts 353°
2026-04-23 16:16 -24.79371 -70.56028 30622 ft 430 kts 352°
2026-04-23 16:16 -24.76393 -70.55919 30231 ft 426 kts 350°
2026-04-23 16:16 -24.73443 -70.55918 29777 ft 422 kts 349°
2026-04-23 16:16 -24.70483 -70.55978 29313 ft 418 kts 348°
2026-04-23 16:17 -24.67583 -70.56056 28866 ft 415 kts 349°
2026-04-23 16:17 -24.64708 -70.56124 28428 ft 412 kts 350°
2026-04-23 16:17 -24.61853 -70.56170 27991 ft 409 kts 351°
2026-04-23 16:17 -24.59020 -70.56196 27556 ft 406 kts 351°
2026-04-23 16:18 -24.56210 -70.56208 27140 ft 402 kts 352°
2026-04-23 16:18 -24.53418 -70.56214 26726 ft 399 kts 352°
2026-04-23 16:18 -24.50651 -70.56224 26312 ft 396 kts 352°
2026-04-23 16:18 -24.47909 -70.56238 25909 ft 393 kts 353°
2026-04-23 16:19 -24.45187 -70.56257 25510 ft 389 kts 353°
2026-04-23 16:19 -24.42489 -70.56278 25116 ft 386 kts 353°
2026-04-23 16:19 -24.39809 -70.56297 24731 ft 383 kts 354°
2026-04-23 16:19 -24.37151 -70.56314 24349 ft 380 kts 354°
2026-04-23 16:20 -24.34516 -70.56330 23974 ft 377 kts 354°
2026-04-23 16:20 -24.31901 -70.56347 23590 ft 374 kts 355°
2026-04-23 16:20 -24.29313 -70.56365 23142 ft 371 kts 355°
2026-04-23 16:20 -24.26738 -70.56381 22697 ft 369 kts 355°
2026-04-23 16:21 -24.24181 -70.56398 22264 ft 366 kts 355°
2026-04-23 16:21 -24.21640 -70.56413 21836 ft 364 kts 355°
2026-04-23 16:21 -24.19115 -70.56390 21409 ft 363 kts 357°
2026-04-23 16:21 -24.16597 -70.56305 20999 ft 361 kts 358°
2026-04-23 16:22 -24.14090 -70.56188 20589 ft 359 kts 359°
2026-04-23 16:22 -24.11599 -70.56063 20182 ft 358 kts 359°
2026-04-23 16:22 -24.09122 -70.55943 19784 ft 356 kts 359°
2026-04-23 16:22 -24.06654 -70.55832 19390 ft 354 kts 359°
2026-04-23 16:23 -24.04197 -70.55732 19006 ft 352 kts 359°
2026-04-23 16:23 -24.01758 -70.55639 18619 ft 350 kts 359°
2026-04-23 16:23 -23.99344 -70.55547 18206 ft 343 kts 359°
2026-04-23 16:23 -23.96986 -70.55457 17766 ft 335 kts 359°
2026-04-23 16:24 -23.94678 -70.55368 17342 ft 329 kts 359°
2026-04-23 16:24 -23.92410 -70.55281 16923 ft 323 kts 359°
2026-04-23 16:24 -23.90180 -70.55196 16493 ft 319 kts 360°
2026-04-23 16:24 -23.87971 -70.55112 16090 ft 318 kts 360°
2026-04-23 16:25 -23.85770 -70.55029 15700 ft 316 kts
2026-04-23 16:25 -23.83551 -70.54943 15318 ft 315 kts
2026-04-23 16:25 -23.81364 -70.54858 14943 ft 314 kts
2026-04-23 16:25 -23.79185 -70.54775 14569 ft 313 kts
2026-04-23 16:26 -23.77015 -70.54690 14206 ft 311 kts
2026-04-23 16:26 -23.74853 -70.54605 13832 ft 310 kts
2026-04-23 16:26 -23.72707 -70.54520 13423 ft 307 kts
2026-04-23 16:26 -23.70572 -70.54434 13020 ft 307 kts
2026-04-23 16:27 -23.68437 -70.54350 12625 ft 307 kts
2026-04-23 16:27 -23.66315 -70.54269 12225 ft 303 kts
2026-04-23 16:27 -23.64210 -70.54192 11838 ft 302 kts
2026-04-23 16:27 -23.62118 -70.54115 11448 ft 300 kts
2026-04-23 16:28 -23.60035 -70.54035 11062 ft 299 kts
2026-04-23 16:28 -23.57968 -70.53956 10709 ft 295 kts
2026-04-23 16:28 -23.55931 -70.53878 10359 ft 291 kts
2026-04-23 16:28 -23.53925 -70.53802 10013 ft 286 kts
2026-04-23 16:29 -23.51949 -70.53728 9638 ft 283 kts
2026-04-23 16:29 -23.49998 -70.53633 9260 ft 278 kts
2026-04-23 16:29 -23.48097 -70.53465 8887 ft 270 kts
2026-04-23 16:29 -23.46247 -70.53265 8523 ft 264 kts
2026-04-23 16:30 -23.44442 -70.53063 8185 ft 257 kts
2026-04-23 16:30 -23.42687 -70.52866 7851 ft 250 kts
2026-04-23 16:30 -23.40975 -70.52678 7516 ft 244 kts
2026-04-23 16:30 -23.39302 -70.52502 7188 ft 239 kts
2026-04-23 16:31 -23.37666 -70.52332 6861 ft 234 kts
2026-04-23 16:31 -23.36065 -70.52165 6537 ft 229 kts
2026-04-23 16:31 -23.34492 -70.52000 6197 ft 225 kts
2026-04-23 16:31 -23.32951 -70.51840 5851 ft 221 kts
2026-04-23 16:32 -23.31470 -70.51496 5508 ft 216 kts 25°
2026-04-23 16:32 -23.30236 -70.50612 5194 ft 209 kts 46°
2026-04-23 16:32 -23.29413 -70.49363 4864 ft 200 kts 66°
2026-04-23 16:32 -23.29043 -70.47909 4514 ft 196 kts 85°
2026-04-23 16:33 -23.29137 -70.46452 4166 ft 192 kts 104°
2026-04-23 16:33 -23.29658 -70.45135 3819 ft 189 kts 123°
2026-04-23 16:33 -23.30530 -70.44091 3478 ft 185 kts 142°
2026-04-23 16:33 -23.31640 -70.43408 3135 ft 183 kts 160°
2026-04-23 16:34 -23.32874 -70.43139 2788 ft 180 kts 179°
2026-04-23 16:34 -23.34102 -70.43252 2516 ft 175 kts 187°
2026-04-23 16:34 -23.35298 -70.43401 2232 ft 170 kts 187°
2026-04-23 16:34 -23.36438 -70.43539 2003 ft 160 kts 188°
2026-04-23 16:35 -23.37499 -70.43666 1772 ft 146 kts 187°
2026-04-23 16:35 -23.38481 -70.43785 1552 ft 139 kts 187°
2026-04-23 16:35 -23.39434 -70.43901 1352 ft 135 kts 187°
2026-04-23 16:35 -23.40369 -70.44014 1128 ft 137 kts 188°
2026-04-23 16:36 -23.41307 -70.44126 938 ft 135 kts 188°
2026-04-23 16:36 -23.42234 -70.44238 727 ft 133 kts 187°
2026-04-23 16:36 -23.43153 -70.44349 534 ft 133 kts 187°
2026-04-23 16:36 -23.44025 -70.44456 421 ft 112 kts 186°
2026-04-23 16:37 -23.44636 -70.44530 399 ft 63 kts 186°
2026-04-23 16:37 -23.44983 -70.44572 384 ft 44 kts 186°
2026-04-23 16:37 -23.45154 -70.44593 378 ft 12 kts 186°
2026-04-23 16:37 -23.45213 -70.44558 376 ft 11 kts 108°